TimeAKDT,TemperatureF,Dew PointF,Humidity,Sea Level PressureIn,VisibilityMPH,Wind Direction,Wind SpeedMPH,Gust SpeedMPH,PrecipitationIn,Events,Conditions,WindDirDegrees,DateUTC
12:53 AM,35.1,15.1,44,30.29,10.0,Calm,Calm,-,N/A,,Partly Cloudy,0,2013-05-19 08:53:00
1:53 AM,34.0,16.0,48,30.31,10.0,SW,6.9,-,N/A,,Clear,230,2013-05-19 09:53:00
2:53 AM,34.0,19.0,54,30.34,10.0,West,6.9,-,N/A,,Clear,280,2013-05-19 10:53:00
3:53 AM,33.1,19.9,59,30.36,10.0,WNW,6.9,-,N/A,,Clear,290,2013-05-19 11:53:00
4:53 AM,32.0,19.9,61,30.38,10.0,Calm,Calm,-,N/A,,Partly Cloudy,0,2013-05-19 12:53:00
5:53 AM,28.9,19.9,69,30.40,10.0,West,5.8,-,N/A,,Partly Cloudy,270,2013-05-19 13:53:00
6:53 AM,30.0,19.9,66,30.42,10.0,WNW,5.8,-,N/A,,Partly Cloudy,290,2013-05-19 14:53:00
7:53 AM,35.1,19.9,54,30.45,10.0,Calm,Calm,-,N/A,,Partly Cloudy,0,2013-05-19 15:53:00
8:53 AM,37.9,19.0,47,30.47,10.0,West,4.6,-,N/A,,Partly Cloudy,260,2013-05-19 16:53:00
9:53 AM,39.9,21.0,47,30.49,10.0,West,12.7,19.6,N/A,,Clear,270,2013-05-19 17:53:00
10:53 AM,42.1,21.0,43,30.51,10.0,West,10.4,16.1,N/A,,Clear,270,2013-05-19 18:53:00
11:53 AM,43.0,21.0,42,30.52,10.0,WSW,9.2,-,N/A,,Clear,240,2013-05-19 19:53:00
12:53 PM,46.0,19.9,35,30.53,10.0,West,8.1,-,N/A,,Clear,280,2013-05-19 20:53:00
1:53 PM,46.0,19.9,35,30.55,10.0,Variable,3.5,-,N/A,,Clear,0,2013-05-19 21:53:00
2:53 PM,46.9,19.9,34,30.56,10.0,SW,9.2,-,N/A,,Clear,230,2013-05-19 22:53:00
3:53 PM,46.0,27.0,47,30.57,10.0,East,11.5,-,N/A,,Clear,100,2013-05-19 23:53:00
4:53 PM,46.0,28.0,50,30.58,10.0,East,11.5,-,N/A,,Clear,90,2013-05-20 00:53:00
5:53 PM,46.0,26.1,46,30.59,10.0,ENE,5.8,-,N/A,,Clear,70,2013-05-20 01:53:00
6:53 PM,46.9,27.0,46,30.60,10.0,ENE,5.8,-,N/A,,Clear,70,2013-05-20 02:53:00
7:53 PM,46.0,25.0,44,30.60,10.0,East,5.8,-,N/A,,Clear,100,2013-05-20 03:53:00
8:53 PM,45.0,25.0,46,30.61,10.0,Calm,Calm,-,N/A,,Clear,0,2013-05-20 04:53:00
9:53 PM,43.0,24.1,47,30.62,10.0,West,3.5,-,N/A,,Clear,270,2013-05-20 05:53:00
10:53 PM,39.0,23.0,53,30.63,10.0,NNW,4.6,-,N/A,,Clear,330,2013-05-20 06:53:00
11:53 PM,36.0,23.0,59,30.64,10.0,West,4.6,-,N/A,,Scattered Clouds,270,2013-05-20 07:53:00